CRV61G EGNX-EGLF

Flight info

Callsign CRV61G
Flight time 0h 30m
Altitude 19000
Route SAPCO Y53 DTY M605 SILVA/N0411F180 M183 CPT
Aircraft A359/H-SDE2E3GHIJ3J4J5LM1ORWXY/LB1D1

Departure

Time 2026-05-07 18:26
Airport East Midlands Airport (EGNX)

Arrival

Time 2026-05-07 18:56
Airport Farnborough Airport (EGLF)
Time Latitude Longitude Altitude Speed Heading
2026-05-07 18:02 52.82822 -1.31569 306 ft 0 kts 133°
2026-05-07 18:13 52.82832 -1.31587 306 ft 2 kts 131°
2026-05-07 18:13 52.82843 -1.31608 305 ft 2 kts 129°
2026-05-07 18:14 52.82853 -1.31629 306 ft 2 kts 127°
2026-05-07 18:14 52.82862 -1.31651 305 ft 2 kts 124°
2026-05-07 18:14 52.82871 -1.31673 303 ft 2 kts 120°
2026-05-07 18:14 52.82879 -1.31697 305 ft 2 kts 113°
2026-05-07 18:15 52.82884 -1.31723 306 ft 2 kts 100°
2026-05-07 18:15 52.82885 -1.31750 305 ft 2 kts 81°
2026-05-07 18:15 52.82884 -1.31777 305 ft 2 kts 90°
2026-05-07 18:15 52.82883 -1.31803 305 ft 2 kts 87°
2026-05-07 18:16 52.82883 -1.31809 305 ft 0 kts 88°
2026-05-07 18:16 52.82883 -1.31793 305 ft 3 kts 89°
2026-05-07 18:16 52.82881 -1.31726 306 ft 8 kts 94°
2026-05-07 18:16 52.82877 -1.31659 305 ft 0 kts 92°
2026-05-07 18:17 52.82877 -1.31650 306 ft 2 kts 92°
2026-05-07 18:17 52.82877 -1.31649 304 ft 0 kts 92°
2026-05-07 18:17 52.82876 -1.31647 304 ft 0 kts 98°
2026-05-07 18:17 52.82873 -1.31640 306 ft 2 kts 119°
2026-05-07 18:18 52.82859 -1.31642 304 ft 2 kts 199°
2026-05-07 18:18 52.82857 -1.31660 307 ft 1 kts 261°
2026-05-07 18:18 52.82858 -1.31667 307 ft 0 kts 276°
2026-05-07 18:19 52.82870 -1.31682 306 ft 5 kts 323°
2026-05-07 18:19 52.82912 -1.31717 307 ft 8 kts 332°
2026-05-07 18:19 52.82945 -1.31803 309 ft 11 kts 282°
2026-05-07 18:19 52.82946 -1.31948 308 ft 15 kts 269°
2026-05-07 18:20 52.82943 -1.32145 308 ft 20 kts 268°
2026-05-07 18:20 52.82939 -1.32397 309 ft 23 kts 268°
2026-05-07 18:20 52.82933 -1.32683 309 ft 26 kts 268°
2026-05-07 18:20 52.82928 -1.33002 311 ft 29 kts 268°
2026-05-07 18:21 52.82921 -1.33328 316 ft 26 kts 268°
2026-05-07 18:21 52.82916 -1.33630 315 ft 24 kts 268°
2026-05-07 18:21 52.82911 -1.33901 316 ft 22 kts 268°
2026-05-07 18:21 52.82908 -1.34057 317 ft 5 kts 268°
2026-05-07 18:22 52.82908 -1.34061 317 ft 0 kts 268°
2026-05-07 18:22 52.82908 -1.34062 317 ft 1 kts 268°
2026-05-07 18:22 52.82906 -1.34201 315 ft 19 kts 269°
2026-05-07 18:22 52.82905 -1.34442 316 ft 23 kts 270°
2026-05-07 18:23 52.82902 -1.34720 320 ft 26 kts 268°
2026-05-07 18:23 52.82915 -1.34912 318 ft 8 kts 321°
2026-05-07 18:23 52.82927 -1.34920 322 ft 2 kts 338°
2026-05-07 18:23 52.82966 -1.34935 321 ft 7 kts 355°
2026-05-07 18:24 52.83031 -1.34931 320 ft 9 kts 12°
2026-05-07 18:24 52.83054 -1.34880 318 ft 7 kts 70°
2026-05-07 18:24 52.83063 -1.34761 317 ft 13 kts 88°
2026-05-07 18:24 52.83066 -1.34621 319 ft 0 kts 88°
2026-05-07 18:25 52.83066 -1.34620 319 ft 0 kts 88°
2026-05-07 18:25 52.83075 -1.34090 314 ft 90 kts 88°
2026-05-07 18:25 52.83103 -1.32651 401 ft 151 kts 89°
2026-05-07 18:26 52.83137 -1.30885 1217 ft 161 kts 91°
2026-05-07 18:26 52.83093 -1.28943 1859 ft 181 kts 98°
2026-05-07 18:26 52.82927 -1.26709 2172 ft 210 kts 102°
2026-05-07 18:26 52.82389 -1.24308 2488 ft 236 kts 122°
2026-05-07 18:27 52.81781 -1.22770 2882 ft 246 kts 127°
2026-05-07 18:27 52.80756 -1.20471 3713 ft 251 kts 129°
2026-05-07 18:27 52.79497 -1.18459 4574 ft 254 kts 146°
2026-05-07 18:27 52.77906 -1.17191 5418 ft 256 kts 162°
2026-05-07 18:28 52.76159 -1.16471 6170 ft 263 kts 175°
2026-05-07 18:28 52.74345 -1.16821 6888 ft 266 kts 201°
2026-05-07 18:28 52.72760 -1.18362 7728 ft 266 kts 218°
2026-05-07 18:28 52.71307 -1.20266 8598 ft 267 kts 219°
2026-05-07 18:29 52.69858 -1.22210 9476 ft 269 kts 219°
2026-05-07 18:29 52.68401 -1.24144 10291 ft 274 kts 219°
2026-05-07 18:29 52.66855 -1.26185 10659 ft 293 kts 218°
2026-05-07 18:29 52.65204 -1.28340 10947 ft 312 kts 218°
2026-05-07 18:30 52.63423 -1.30654 11290 ft 328 kts 218°
2026-05-07 18:30 52.61602 -1.32887 11845 ft 334 kts 212°
2026-05-07 18:30 52.59479 -1.34467 12500 ft 338 kts 195°
2026-05-07 18:30 52.57156 -1.35157 13183 ft 341 kts 188°
2026-05-07 18:31 52.54777 -1.35410 13812 ft 345 kts 178°
2026-05-07 18:31 52.52402 -1.34699 14384 ft 350 kts 165°
2026-05-07 18:31 52.50077 -1.33406 14912 ft 356 kts 160°
2026-05-07 18:31 52.47775 -1.31849 15452 ft 360 kts 158°
2026-05-07 18:32 52.45468 -1.30178 16034 ft 364 kts 158°
2026-05-07 18:32 52.43144 -1.28481 16583 ft 368 kts 158°
2026-05-07 18:32 52.40787 -1.26789 17170 ft 372 kts 158°
2026-05-07 18:32 52.38394 -1.25112 17724 ft 375 kts 159°
2026-05-07 18:33 52.35975 -1.23450 18268 ft 379 kts 159°
2026-05-07 18:33 52.33523 -1.21788 18736 ft 382 kts 159°
2026-05-07 18:33 52.31062 -1.20129 18996 ft 385 kts 159°
2026-05-07 18:33 52.28506 -1.18418 19033 ft 410 kts 159°
2026-05-07 18:34 52.25871 -1.16657 19043 ft 417 kts 159°
2026-05-07 18:34 52.23181 -1.14853 19044 ft 418 kts 159°
2026-05-07 18:34 52.20489 -1.13048 19043 ft 418 kts 159°
2026-05-07 18:34 52.17740 -1.11530 19043 ft 416 kts 166°
2026-05-07 18:35 52.14929 -1.10368 19041 ft 416 kts 168°
2026-05-07 18:35 52.12106 -1.09350 19037 ft 415 kts 170°
2026-05-07 18:35 52.09273 -1.08411 19034 ft 415 kts 171°
2026-05-07 18:35 52.06434 -1.07506 19035 ft 415 kts 171°
2026-05-07 18:36 52.03597 -1.06611 19025 ft 415 kts 171°
2026-05-07 18:36 52.00799 -1.05724 19019 ft 415 kts 171°
2026-05-07 18:36 51.97962 -1.04814 19019 ft 415 kts 171°
2026-05-07 18:36 51.95128 -1.03898 19018 ft 415 kts 171°
2026-05-07 18:37 51.92298 -1.02982 19020 ft 415 kts 170°
2026-05-07 18:37 51.89464 -1.02065 19018 ft 415 kts 170°
2026-05-07 18:37 51.86612 -1.01373 18985 ft 412 kts 178°
2026-05-07 18:37 51.83801 -1.01571 18455 ft 400 kts 191°
2026-05-07 18:38 51.81104 -1.02750 17298 ft 403 kts 200°
2026-05-07 18:38 51.78461 -1.04309 16251 ft 404 kts 201°
2026-05-07 18:38 51.75837 -1.05909 15403 ft 401 kts 201°
2026-05-07 18:38 51.73235 -1.07493 14574 ft 397 kts 201°
2026-05-07 18:39 51.70661 -1.09054 13787 ft 392 kts 201°
2026-05-07 18:39 51.68161 -1.10564 12606 ft 375 kts 201°
2026-05-07 18:39 51.65736 -1.12025 11175 ft 368 kts 201°
2026-05-07 18:39 51.63431 -1.13410 10758 ft 337 kts 201°
2026-05-07 18:40 51.61325 -1.14674 10658 ft 318 kts 201°
2026-05-07 18:40 51.59312 -1.15882 10547 ft 300 kts 201°
2026-05-07 18:40 51.57405 -1.17026 10446 ft 285 kts 201°
2026-05-07 18:40 51.55580 -1.18118 10344 ft 277 kts 202°
2026-05-07 18:41 51.53770 -1.19203 10202 ft 278 kts 202°
2026-05-07 18:41 51.51959 -1.20288 10100 ft 278 kts 202°
2026-05-07 18:41 51.50106 -1.21172 9922 ft 279 kts 191°
2026-05-07 18:41 51.48165 -1.21037 9677 ft 282 kts 167°
2026-05-07 18:42 51.46358 -1.19875 9468 ft 281 kts 156°
2026-05-07 18:42 51.44596 -1.18475 9151 ft 283 kts 155°
2026-05-07 18:42 51.42834 -1.17054 8794 ft 282 kts 155°
2026-05-07 18:42 51.41075 -1.15650 8389 ft 281 kts 155°
2026-05-07 18:43 51.39350 -1.14279 8210 ft 270 kts 155°
2026-05-07 18:43 51.37726 -1.12996 8090 ft 257 kts 155°
2026-05-07 18:43 51.36160 -1.11762 7958 ft 245 kts 155°
2026-05-07 18:43 51.34764 -1.10302 7846 ft 237 kts 137°
2026-05-07 18:44 51.33717 -1.08274 7646 ft 236 kts 126°
2026-05-07 18:44 51.32790 -1.06114 7416 ft 235 kts 124°
2026-05-07 18:44 51.31874 -1.03936 7157 ft 236 kts 125°
2026-05-07 18:44 51.30956 -1.01771 6898 ft 234 kts 124°
2026-05-07 18:45 51.30044 -0.99621 6653 ft 233 kts 124°
2026-05-07 18:45 51.29133 -0.97497 6445 ft 231 kts 124°
2026-05-07 18:45 51.28227 -0.95390 6197 ft 229 kts 124°
2026-05-07 18:45 51.27330 -0.93305 5953 ft 227 kts 124°
2026-05-07 18:46 51.26439 -0.91238 5718 ft 225 kts 124°
2026-05-07 18:46 51.25553 -0.89184 5469 ft 223 kts 124°
2026-05-07 18:46 51.24670 -0.87137 5238 ft 222 kts 123°
2026-05-07 18:46 51.23843 -0.85076 5027 ft 220 kts 116°
2026-05-07 18:47 51.23320 -0.82824 4996 ft 220 kts 105°
2026-05-07 18:47 51.22912 -0.80456 4685 ft 222 kts 104°
2026-05-07 18:47 51.22522 -0.78095 4423 ft 218 kts 104°
2026-05-07 18:47 51.22106 -0.75782 4089 ft 217 kts 110°
2026-05-07 18:48 51.21192 -0.73922 3837 ft 214 kts 144°
2026-05-07 18:48 51.19819 -0.73203 3725 ft 204 kts 174°
2026-05-07 18:48 51.18423 -0.73185 3470 ft 201 kts 180°
2026-05-07 18:48 51.16981 -0.73272 3080 ft 213 kts 181°
2026-05-07 18:49 51.15473 -0.73364 2981 ft 219 kts 181°
2026-05-07 18:49 51.13945 -0.73453 2978 ft 219 kts 180°
2026-05-07 18:49 51.12490 -0.74008 2989 ft 211 kts 208°
2026-05-07 18:49 51.11547 -0.75622 3011 ft 195 kts 244°
2026-05-07 18:50 51.11295 -0.77698 3010 ft 191 kts 267°
2026-05-07 18:50 51.11283 -0.79822 2997 ft 192 kts 270°
2026-05-07 18:50 51.11305 -0.81953 2993 ft 193 kts 270°
2026-05-07 18:50 51.11457 -0.84070 2992 ft 194 kts 289°
2026-05-07 18:51 51.12262 -0.85758 2996 ft 193 kts 323°
2026-05-07 18:51 51.13368 -0.86951 2994 ft 191 kts 329°
2026-05-07 18:51 51.14506 -0.88041 2994 ft 191 kts 330°
2026-05-07 18:51 51.15627 -0.89105 2994 ft 189 kts 330°
2026-05-07 18:52 51.16775 -0.90183 2992 ft 189 kts 331°
2026-05-07 18:52 51.17896 -0.91244 2994 ft 190 kts 330°
2026-05-07 18:52 51.19061 -0.92217 2915 ft 188 kts 341°
2026-05-07 18:52 51.20329 -0.92230 2415 ft 183 kts 18°
2026-05-07 18:53 51.21465 -0.91446 2095 ft 170 kts 29°
2026-05-07 18:53 51.22444 -0.90619 2006 ft 151 kts 30°
2026-05-07 18:53 51.23362 -0.89667 2001 ft 162 kts 45°
2026-05-07 18:53 51.24113 -0.88322 1866 ft 161 kts 63°
2026-05-07 18:54 51.24434 -0.86736 1666 ft 145 kts 69°
2026-05-07 18:54 51.24929 -0.85373 1416 ft 139 kts 58°
2026-05-07 18:54 51.25424 -0.84058 1093 ft 138 kts 65°
2026-05-07 18:54 51.25871 -0.82730 818 ft 133 kts 65°
2026-05-07 18:55 51.26304 -0.81458 599 ft 128 kts 65°
2026-05-07 18:55 51.26720 -0.80216 400 ft 127 kts 64°
2026-05-07 18:55 51.27135 -0.78976 251 ft 129 kts 64°
2026-05-07 18:55 51.27490 -0.77894 237 ft 89 kts 62°
2026-05-07 18:56 51.27733 -0.77165 238 ft 43 kts 58°
2026-05-07 18:56 51.27925 -0.76895 239 ft 24 kts 34°
2026-05-07 18:56 51.28014 -0.76800 241 ft 15 kts 34°
2026-05-07 18:56 51.28099 -0.76708 238 ft 0 kts 34°
2026-05-07 18:57 51.28111 -0.76696 238 ft 9 kts 34°
2026-05-07 18:57 51.28181 -0.76618 239 ft 14 kts 41°
2026-05-07 18:57 51.28207 -0.76457 238 ft 14 kts 91°
2026-05-07 18:58 51.28230 -0.76367 237 ft 5 kts
2026-05-07 18:58 51.28253 -0.76353 237 ft 2 kts 58°
2026-05-07 18:58 51.28245 -0.76335 237 ft 2 kts 142°
2026-05-07 18:58 51.28233 -0.76336 237 ft 4 kts 184°
2026-05-07 18:59 51.28213 -0.76365 237 ft 4 kts 241°
2026-05-07 18:59 51.28208 -0.76437 238 ft 8 kts 269°
2026-05-07 18:59 51.28209 -0.76536 239 ft 6 kts 270°
2026-05-07 18:59 51.28186 -0.76611 239 ft 9 kts 219°
2026-05-07 19:00 51.28153 -0.76650 239 ft 0 kts 214°
2026-05-07 19:00 51.28150 -0.76654 239 ft 4 kts 214°
2026-05-07 19:00 51.28100 -0.76708 238 ft 13 kts 214°
2026-05-07 19:00 51.28067 -0.76828 238 ft 15 kts 282°
2026-05-07 19:01 51.28105 -0.77027 235 ft 22 kts 287°
2026-05-07 19:01 51.28158 -0.77290 229 ft 25 kts 288°
2026-05-07 19:01 51.28195 -0.77474 226 ft 13 kts 288°
2026-05-07 19:01 51.28218 -0.77620 230 ft 13 kts 265°
2026-05-07 19:02 51.28165 -0.77728 233 ft 8 kts 229°
2026-05-07 19:02 51.28149 -0.77736 232 ft 4 kts 170°
2026-05-07 19:02 51.28133 -0.77684 233 ft 0 kts 80°